Weather History for KCDD - November, 2011

Change the Weather History Date:

Friday, November 25, 2011

  Actual Average Record
Temperature  
Mean Temperature 30 °F -  
Max Temperature 37 °F 29 °F - (-1)
Min Temperature 23 °F 16 °F - (-1)
Degree Days  
Heating Degree Days 35    
Moisture  
Dew Point 27 °F    
Average Humidity 89    
Maximum Humidity 100    
Minimum Humidity 75    
Precipitation  
Precipitation 0.00 in - - ()
Sea Level Pressure  
Sea Level Pressure 29.75 in    
Wind  
Wind Speed 1 mph (NE)    
Max Wind Speed 6 mph    
Max Gust Speed -    
Visibility 9 miles    
Events      
Averages and records for this station are not official NWS values.
T = Trace of Precipitation, MM = Missing Value Source: NWS Daily Summary

Daily Weather History Graph

Daily Weather History Graph

Search for Another Location

Airport or City:

Trip Planner

Search our weather history database for the weather conditions in past years. The results will help you decide how hot, cold, wet, or windy it might be!

Date:

Astronomy

Nov. 25, 2011 Rise Set
Actual Time 7:31 AM CST 4:21 PM CST
Civil Twilight 6:56 AM CST 4:57 PM CST
Nautical Twilight 6:17 AM CST 5:35 PM CST
Astronomical Twilight 5:40 AM CST 6:13 PM CST
Moon 8:04 AM CST (11/25) 4:44 PM CST (11/25)
Length of Visible Light 10h 00m
Length of Day
8h 50m
New Moon, 0% of the Moon is Illuminated
Nov 25
New Moon
Dec 2
First Quarter
Dec 10
Full
Dec 17
Last Quarter
Dec 24
New

Hourly Weather History & Observations

Time (CST) Temp. Windchill Dew Point Humidity Pressure Visibility Wind Dir Wind Speed Gust Speed Precip Events Conditions
12:12 AM 26.6 °F - 26.6 °F 100% 29.67 in 7.0 mi Calm Calm - N/A   Clear
12:31 AM 26.6 °F - 26.6 °F 100% 29.67 in 7.0 mi Calm Calm - N/A   Clear
12:52 AM 26.6 °F - 24.8 °F 93% 29.67 in 5.0 mi Calm Calm - N/A   Clear
1:32 AM 24.8 °F - 24.8 °F 100% 29.69 in 7.0 mi Calm Calm - N/A   Clear
1:51 AM 24.8 °F - 24.8 °F 100% 29.68 in 5.0 mi Calm Calm - N/A   Clear
2:11 AM 24.8 °F - 24.8 °F 100% 29.69 in 7.0 mi Calm Calm - N/A   Clear
2:32 AM 24.8 °F - 24.8 °F 100% 29.69 in 7.0 mi Calm Calm - N/A   Clear
2:51 AM 24.8 °F - 24.8 °F 100% 29.68 in 7.0 mi Calm Calm - N/A   Clear
3:12 AM 24.8 °F - 23.0 °F 93% 29.68 in 7.0 mi Calm Calm - N/A   Clear
3:51 AM 24.8 °F - 24.8 °F 100% 29.69 in 5.0 mi Calm Calm - N/A   Clear
4:11 AM 24.8 °F - 24.8 °F 100% 29.70 in 7.0 mi Calm Calm - N/A   Clear
4:32 AM 24.8 °F - 24.8 °F 100% 29.71 in 7.0 mi Calm Calm - N/A   Clear
4:51 AM 24.8 °F - 23.0 °F 93% 29.70 in 7.0 mi Calm Calm - N/A   Clear
5:11 AM 23.0 °F - 21.2 °F 93% 29.71 in 5.0 mi Calm Calm - N/A   Clear
5:31 AM 23.0 °F - 21.2 °F 93% 29.72 in 7.0 mi Calm Calm - N/A   Clear
5:51 AM 23.0 °F - 21.2 °F 93% 29.72 in 7.0 mi Calm Calm - N/A   Clear
6:11 AM 23.0 °F - 21.2 °F 93% 29.73 in 7.0 mi Calm Calm - N/A   Clear
6:31 AM 23.0 °F - 21.2 °F 93% 29.74 in 7.0 mi Calm Calm - N/A   Clear
6:51 AM 23.0 °F - 21.2 °F 93% 29.74 in 7.0 mi Calm Calm - N/A   Clear
7:11 AM 24.8 °F - 23.0 °F 93% 29.74 in 10.0 mi Calm Calm - N/A   Clear
7:31 AM 24.8 °F - 23.0 °F 93% 29.75 in 10.0 mi Calm Calm - N/A   Clear
7:52 AM 24.8 °F - 23.0 °F 93% 29.76 in 10.0 mi Calm Calm - N/A   Clear
8:11 AM 24.8 °F - 24.8 °F 100% 29.77 in 10.0 mi Calm Calm - N/A   Clear
8:31 AM 24.8 °F - 24.8 °F 100% 29.77 in 10.0 mi Calm Calm - N/A   Clear
8:52 AM 26.6 °F - 24.8 °F 93% 29.77 in 10.0 mi Calm Calm - N/A   Clear
9:11 AM 28.4 °F - 26.6 °F 93% 29.76 in 10.0 mi Calm Calm - N/A   Clear
9:32 AM 30.2 °F - 30.2 °F 100% 29.77 in 10.0 mi Calm Calm - N/A   Clear
9:52 AM 33.8 °F - 30.2 °F 87% 29.78 in 10.0 mi Calm Calm - N/A   Clear
10:12 AM 33.8 °F - 32.0 °F 93% 29.80 in 10.0 mi Calm Calm - N/A   Clear
10:32 AM 33.8 °F - 30.2 °F 87% 29.79 in 10.0 mi Calm Calm - N/A   Clear
10:51 AM 35.6 °F - 32.0 °F 87% 29.78 in 10.0 mi Calm Calm - N/A   Clear
11:12 AM 35.6 °F 32.8 °F 32.0 °F 87% 29.77 in 10.0 mi NNE 3.5 mph - N/A   Clear
11:31 AM 37.4 °F 33.8 °F 32.0 °F 81% 29.78 in 10.0 mi NE 4.6 mph - N/A   Scattered Clouds
12:11 PM 35.6 °F 30.7 °F 30.2 °F 81% 29.77 in 10.0 mi ENE 5.8 mph - N/A   Mostly Cloudy
12:31 PM 35.6 °F 32.8 °F 30.2 °F 81% 29.77 in 10.0 mi North 3.5 mph - N/A   Mostly Cloudy
12:51 PM 35.6 °F 31.7 °F 30.2 °F 81% 29.78 in 10.0 mi North 4.6 mph - N/A   Overcast
1:11 PM 35.6 °F 31.7 °F 30.2 °F 81% 29.78 in 10.0 mi North 4.6 mph - N/A   Overcast
1:31 PM 37.4 °F 32.8 °F 30.2 °F 75% 29.76 in 10.0 mi NE 5.8 mph - N/A   Overcast
1:51 PM 37.4 °F 32.8 °F 30.2 °F 75% 29.77 in 10.0 mi NE 5.8 mph - N/A   Scattered Clouds
2:12 PM 37.4 °F 32.8 °F 30.2 °F 75% 29.77 in 10.0 mi ENE 5.8 mph - N/A   Clear
2:31 PM 37.4 °F 34.9 °F 30.2 °F 75% 29.76 in 10.0 mi NE 3.5 mph - N/A   Scattered Clouds
3:11 PM 37.4 °F 34.9 °F 30.2 °F 75% 29.77 in 10.0 mi East 3.5 mph - N/A   Clear
3:32 PM 35.6 °F 32.8 °F 30.2 °F 81% 29.77 in 10.0 mi ENE 3.5 mph - N/A   Clear
3:51 PM 35.6 °F 31.7 °F 30.2 °F 81% 29.77 in 10.0 mi NE 4.6 mph - N/A   Clear
4:12 PM 35.6 °F - 30.2 °F 81% 29.78 in 10.0 mi Calm Calm - N/A   Clear
4:31 PM 33.8 °F - 30.2 °F 87% 29.79 in 10.0 mi Calm Calm - N/A   Clear
5:11 PM 33.8 °F - 30.2 °F 87% 29.79 in 10.0 mi Calm Calm - N/A   Clear
5:51 PM 32.0 °F - 28.4 °F 87% 29.81 in 10.0 mi Calm Calm - N/A   Clear
6:11 PM 30.2 °F - 28.4 °F 93% 29.81 in 10.0 mi Calm Calm - N/A   Clear
6:32 PM 32.0 °F - 28.4 °F 87% 29.80 in 10.0 mi Calm Calm - N/A   Clear
6:51 PM 33.8 °F - 28.4 °F 81% 29.80 in 10.0 mi Calm Calm - N/A   Clear
7:31 PM 33.8 °F - 30.2 °F 87% 29.81 in 10.0 mi Calm Calm - N/A   Mostly Cloudy
8:11 PM 33.8 °F - 30.2 °F 87% 29.81 in 10.0 mi Calm Calm - N/A   Overcast
8:31 PM 33.8 °F 30.8 °F 30.2 °F 87% 29.82 in 10.0 mi NE 3.5 mph - N/A   Overcast
8:51 PM 33.8 °F - 28.4 °F 81% 29.82 in 10.0 mi Calm Calm - N/A   Overcast
9:11 PM 33.8 °F 30.8 °F 28.4 °F 81% 29.84 in 10.0 mi NE 3.5 mph - N/A   Overcast
9:31 PM 33.8 °F 30.8 °F 28.4 °F 81% 29.84 in 10.0 mi NE 3.5 mph - N/A   Overcast
9:51 PM 33.8 °F 30.8 °F 28.4 °F 81% 29.82 in 10.0 mi NE 3.5 mph - N/A   Overcast
10:11 PM 33.8 °F 30.8 °F 28.4 °F 81% 29.83 in 10.0 mi ENE 3.5 mph - N/A   Overcast
10:31 PM 33.8 °F 30.8 °F 28.4 °F 81% 29.83 in 10.0 mi NE 3.5 mph - N/A   Overcast
11:11 PM 33.8 °F 29.6 °F 28.4 °F 81% 29.84 in 10.0 mi ENE 4.6 mph - N/A   Overcast
11:31 PM 33.8 °F 29.6 °F 28.4 °F 81% 29.84 in 10.0 mi NE 4.6 mph - N/A   Overcast
11:52 PM 33.8 °F - 28.4 °F 81% 29.85 in 10.0 mi Calm Calm - N/A   Overcast